Flag for Germany Weather past 2 weeks in Lünen, North Rhine-Westphalia, Germany

Now
59 °F

Partly sunny.


Feels Like: 57 °F
Forecast: 54 / 73 °F
Wind: 13 mph from Southwest

Location: Dortmund / Wickede

Current Time: May 4, 2015 at 10:14:23 AM

Latest Report: May 4, 2015 at 9:20 AM


Visibility: N/A

Pressure: 29.77 "Hg

Humidity: 77%

Dew point: 52 °F

Location of LünenLocation

Historic Weather in Lünen — Graph

°F

Lünen temperature yesterday

Maximum temperature yesterday: 63 °F (at 11:50 AM)
Minimum temperature yesterday: 45 °F (at 5:20 AM)
Average temperature yesterday: 56 °F

Past Weeks' High & Low Weather Summary

 TemperatureHumidityPressure
High70 °F (Apr 21, 3:50 PM)94% (Apr 27, 5:20 AM)30.45 "Hg (Apr 27, 5:20 AM)
Low30 °F (Apr 28, 5:20 AM)18% (Apr 21, 4:50 PM)29.59 "Hg (May 3, 3:50 PM)
Average52 °F64%29.97 "Hg
* Reported Apr 19 8:20 AM — May 4 8:50 AM, Lünen, Weather by CustomWeather, © 2015

Note: Actual official high and low records may vary slightly from our data, if they occured in-between our weather recording intervals... More about our weather records

Advertising

Lünen weather history for previous 24 hours

 ConditionsComfort  
Time TempWeatherWind HumidityBarometerVisibility
8:50 AM
Mon, May 4
59 °FPartly sunny.12 mph77%29.77 "HgN/A
8:20 AM57 °FPartly sunny.8 mph82%29.74 "HgN/A
7:50 AM55 °FPartly sunny.6 mph88%29.74 "HgN/A
7:20 AM55 °FPartly sunny.7 mph88%29.74 "HgN/A
6:50 AM55 °FPassing clouds.7 mph82%29.74 "HgN/A
6:20 AM55 °FScattered showers. Passing clouds.8 mph88%29.71 "HgN/A
5:50 AM55 °FPassing clouds.8 mph82%29.71 "HgN/A
5:20 AM55 °FPassing clouds.10 mph88%29.71 "HgN/A
10:50 PM
Sun, May 3
59 °FSprinkles. Clear.14 mph82%29.62 "HgN/A
10:20 PM59 °FScattered showers. Clear.13 mph88%29.62 "HgN/A
9:50 PM59 °FScattered showers. Scattered clouds.10 mph82%29.59 "HgN/A
9:20 PM59 °FScattered clouds.9 mph88%29.59 "HgN/A
8:50 PM59 °FPartly sunny.8 mph88%29.59 "HgN/A
8:20 PM59 °FPartly sunny.8 mph88%29.59 "HgN/A
7:50 PM59 °FScattered showers. Partly sunny.10 mph88%29.59 "HgN/A
7:20 PM57 °FDrizzle. Overcast.8 mph94%29.59 "HgN/A
6:50 PM59 °FDrizzle. Overcast.8 mph88%29.59 "Hg5 mi
6:20 PM59 °FDrizzle. Overcast.9 mph88%29.59 "Hg6 mi
5:50 PM59 °FLight rain. Partly sunny.8 mph88%29.59 "HgN/A
5:20 PM57 °FLight rain. Partly sunny.9 mph88%29.59 "Hg6 mi
4:50 PM57 °FScattered showers. Partly sunny.8 mph88%29.59 "Hg5 mi
4:20 PM59 °FLight rain. Partly sunny.13 mph77%29.59 "Hg4 mi
3:50 PM61 °FScattered showers. Partly sunny.10 mph72%29.59 "HgN/A
3:20 PM61 °FPartly sunny.10 mph68%29.62 "HgN/A
2:50 PM61 °FPartly sunny.10 mph68%29.62 "HgN/A
2:20 PM61 °FPartly sunny.14 mph68%29.62 "HgN/A
1:50 PM59 °FPartly sunny.14 mph68%29.62 "HgN/A
1:20 PM61 °FPartly sunny.13 mph63%29.62 "HgN/A
12:50 PM61 °FPartly sunny.10 mph63%29.62 "HgN/A
12:20 PM61 °FPartly sunny.13 mph63%29.62 "HgN/A
11:50 AM63 °FScattered clouds.15 mph59%29.62 "HgN/A
11:20 AM61 °FPartly sunny.12 mph63%29.65 "HgN/A
10:50 AM61 °FBroken clouds.9 mph63%29.65 "HgN/A
10:20 AM59 °FPassing clouds.5 mph59%29.65 "HgN/A
Weather by CustomWeather, © 2015

See weather overviewHow to use our weather pages